Location: Radford
(37.1320°N, 80.5770°W)
Time: 10:45:58
(UTC-04:00)

Daily predictions for brighter satellites

Satellite Brightness Start Highest point End
(mag) Time Altitude Azimuth Time Altitude Azimuth Time Altitude Azimuth
SPOT 3 Rocket 3.5 19:31:53 10° SSE 19:37:01 81° ENE 19:42:12 10° N
Cosmos 1825 Rocket 3.9 19:34:22 10° N 19:38:48 73° W 19:43:14 10° S
NOAA 12 4.1 19:35:48 10° SSE 19:40:57 61° ENE 19:46:08 10° N
Meteor 1-24 Rocket 4.3 19:37:03 10° N 19:42:33 38° ENE 19:47:51 10° SE
Milstar 3 Cent rocket 3.6 19:40:54 10° SW 19:46:03 25° S 19:49:59 10° ESE
Cosmos 1656 Rocket 3.7 19:41:21 10° NNW 19:46:58 67° ENE 19:52:28 10° SSE
METEOR-M 4.4 19:44:24 10° S 19:49:45 76° WSW 19:55:07 10° NNW
FENGYUN 3A 3.7 19:45:24 10° SSE 19:50:40 64° ENE 19:56:00 10° N
ORS 1 (USA 231) 4.3 19:51:26 10° WNW 19:54:23 79° NNE 19:56:45 15° ESE
NOSS 3-1 (A) 4.2 19:50:42 10° NNW 19:58:24 66° NE 20:06:49 10° SE
Cosmos 841 Rocket 4.0 19:54:20 10° SSW 19:59:25 64° WNW 20:04:32 10° NNE
H-2A R/B 3.2 19:56:53 10° SE 20:00:19 36° ENE 20:03:48 10° N
Cosmos 1544 3.4 19:57:19 10° SSE 20:00:44 41° E 20:04:10 10° NNE
SJ-6B 3.4 19:58:20 10° SE 20:01:59 35° ENE 20:05:34 10° N
NOSS 3-1 (C) 4.2 19:58:05 10° NNW 20:05:53 88° WSW 20:14:26 10° SSE
BREEZE-M (TANK) 4.0 19:49:54 10° NW 20:05:59 79° NNE 20:09:26 15° ESE
Cosmos 1953 3.6 20:04:15 10° SE 20:07:10 19° E 20:10:06 10° NE
USA 81 4.2 20:02:28 10° N 20:07:46 81° W 20:13:02 10° S
Cosmos 540 Rocket 3.3 20:03:26 10° S 20:08:30 75° ESE 20:13:36 10° NNE
Cosmos 292 Rocket 4.3 20:09:23 10° SSE 20:13:46 35° E 20:18:10 10° NE
SL-27 R/B 2.9 20:10:47 10° S 20:14:10 41° ESE 20:17:36 10° NNE
Cosmos 1378 4.5 20:11:02 10° NNW 20:14:38 43° W 20:18:12 10° SSW
COSMOS 2406 3.6 20:15:08 10° SSW 20:20:48 69° WNW 20:26:33 10° NNE
HJ-1C 3.4 20:19:33 12° SSE 20:22:32 56° ENE 20:25:51 10° N
SJ 16-02 1.9 20:19:06 10° N 20:23:10 36° ENE 20:24:56 25° ESE
In-Cosmos 22 4.2 20:17:40 10° N 20:23:24 73° E 20:29:09 10° SSE
Meteor 1-22 Rocket 4.3 20:19:11 10° SSW 20:24:54 79° W 20:30:24 10° N
Cosmos 1356 Rocket 4.0 20:21:53 10° NNW 20:26:08 63° W 20:30:23 10° S
Cosmos 1674 4.0 20:23:24 10° NNE 20:25:43 22° ENE 20:25:43 22° ENE
Cosmos 1766 3.6 20:23:27 10° SSW 20:27:21 66° W 20:31:14 10° N
OAO 3 Copernicus 4.4 20:23:38 10° W 20:28:39 67° S 20:31:15 28° ESE
Resurs 1-3 4.2 20:33:13 32° E 20:34:11 36° ENE 20:38:12 10° N
FengYun 1-2 T 4.4 20:32:41 10° S 20:38:17 78° WSW 20:43:51 10° NNW
ALOS 3.8 20:34:10 10° SSW 20:38:27 37° W 20:42:47 10° NNW
ISS -2.7 20:35:42 10° WSW 20:38:49 41° NW 20:40:35 21° NNE
Cosmos 2154 Rocket 3.9 20:33:36 10° S 20:39:46 71° E 20:46:01 10° NNE
MOS 1-B Rocket 4.2 20:37:06 22° SE 20:40:40 46° ENE 20:46:02 10° N
BREEZE-M DEB (TANK) 3.9 20:31:57 10° WSW 20:45:33 70° NNW 20:48:25 23° NE
Meteor 1-21 Rocket 4.3 20:44:16 10° N 20:49:48 51° ENE 20:51:42 36° SE
Spot 2 Rocket 3.5 20:50:59 41° ESE 20:52:24 55° ENE 20:57:19 10° N
Cosmos 1758 3.2 20:48:38 10° S 20:52:38 89° WSW 20:56:40 10° N
Elektron 1 4.4 20:50:13 10° NNW 20:52:34 44° N 20:52:34 44° N
Cosmos 1812 Rocket 4.1 20:50:05 10° SSW 20:54:28 60° W 20:58:55 10° N
Cosmos 2341 Rocket 3.9 20:48:54 10° S 20:55:00 66° E 21:01:10 10° NNE
Cosmos 2082 Rocket 3.9 20:52:10 10° S 21:03:56 - NE 20:53:27 17° SSE
Cosmos 1805 4.2 20:53:51 10° SSW 20:57:37 48° W 21:01:24 10° N
ATLAS 5 CENTAUR R/B 3.1 20:55:47 10° S 20:57:40 23° S 20:57:40 23° S
Resurs 01 Rocket 1.5 21:01:56 57° SSE 21:02:50 84° ENE 21:07:15 10° N
CZ-2D R/B 3.5 21:04:04 50° SSW 21:04:51 66° W 21:08:39 10° NNW
GP-B 3.2 21:00:57 10° N 21:05:23 74° W 21:08:54 16° S
Cosmos 2278 4.0 21:01:42 10° N 21:07:09 45° ENE 21:07:09 45° ENE
ATLAS CENTAUR R/B 3.9 20:57:36 10° NW 21:07:44 43° WSW 21:10:27 21° S
Nadezhda 3 Rocket 4.1 21:05:30 10° N 21:11:48 77° W 21:17:43 11° S
Cosmos 1656 4.2 21:11:24 10° N 21:16:08 42° NE 21:16:08 42° NE
Cosmos 2218 Rocket 4.4 21:20:07 43° NE 21:20:07 43° NE 21:24:41 10° NNE
Cosmos 2285 Rocket 3.9 21:15:44 10° SSW 21:22:09 89° ESE 21:28:38 10° NNE
Cosmos 1809 Rocket 4.3 21:18:22 18° S 21:23:08 81° E 21:29:15 10° N
Cosmos 1697 Rocket 3.8 21:19:12 10° N 21:22:57 31° NNE 21:22:57 31° NNE
Envisat 3.0 21:24:15 64° SSW 21:24:57 76° WSW 21:30:03 10° NNW
Cosmos 1295 Rocket 4.4 21:20:12 10° S 21:26:17 80° W 21:32:24 10° N
Cosmos 1980 Rocket 3.9 21:22:15 10° N 21:24:38 19° NNE 21:24:38 19° NNE
Okean 3 Rocket 4.3 21:25:50 10° NNW 21:29:16 50° NNW 21:29:16 50° NNW
Gbstr 26 Del rocket 4.0 21:27:29 10° SW 21:31:04 50° SSW 21:31:04 50° SSW
SL-8 Rocket 3.8 21:38:36 76° SSW 21:39:08 88° W 21:45:20 10° N
Meteor 2-15 4.3 21:33:57 10° N 21:39:38 79° NNE 21:39:38 79° NNE
ATLAS 2AS CENTAUR R/B 2.9 21:32:28 10° NNW 21:40:22 61° NE 21:40:36 61° ENE
NOSS 3-3 (A) 4.3 21:50:47 10° SW 22:05:30 - NNE 21:55:46 59° WSW
NOSS 3-3 (C) 4.3 21:50:53 10° SW 22:05:39 - NNE 21:55:39 56° WSW
SJ 16-02 3.9 21:58:38 10° WNW 22:01:25 17° W 22:02:00 16° WSW
Centaur D AC-29 4.2 22:23:27 10° WSW 22:24:06 12° SW 22:24:06 12° SW
FALCON 9 R/B 4.4 22:35:16 10° W 22:36:10 18° W 22:36:10 18° W
